This is the latest recevied weather packets stored in our database for station/object WI0K. If no packets are shown the sender has not sent any weather packets the latest 10 day(s).
| Time | Temp. | Humidity | Pressure | Rain* | Wind** | Luminosity | Snow |
|---|---|---|---|---|---|---|---|
| 1777844586 | 21.67° C | 19% | 1012.9 hPa | 0 mm | - | 634 W/m² | - |
| 1777844286 | 22.22° C | 18% | 1012.9 hPa | 0 mm | - | 334 W/m² | - |
| 1777843985 | 22.78° C | 18% | 1013 hPa | 0 mm | - | 277 W/m² | - |
| 1777843685 | 23.33° C | 16% | 1013 hPa | 0 mm | - | 282 W/m² | - |
| 1777843384 | 23.33° C | 17% | 1013.1 hPa | 0 mm | - | 381 W/m² | - |
| 1777843084 | 23.89° C | 17% | 1013.1 hPa | 0 mm | - | 459 W/m² | - |
| 1777842783 | 23.89° C | 18% | 1013.1 hPa | 0 mm | - | 500 W/m² | - |
| 1777842482 | 23.33° C | 17% | 1013.2 hPa | 0 mm | - | 817 W/m² | - |
| 1777842182 | 23.33° C | 16% | 1013.2 hPa | 0 mm | - | 985 W/m² | - |
| 1777841881 | 23.33° C | 18% | 1013.3 hPa | 0 mm | - | 799 W/m² | - |
| 1777841580 | 22.78° C | 17% | 1013.5 hPa | 0 mm | - | 999 W/m² | - |
| 1777841280 | 23.33° C | 17% | 1013.5 hPa | 0 mm | - | 999 W/m² | - |
| 1777840979 | 23.33° C | 17% | 1013.6 hPa | 0 mm | - | 999 W/m² | - |
| 1777840679 | 23.33° C | 16% | 1013.7 hPa | 0 mm | - | 994 W/m² | - |
| 1777840378 | 23.33° C | 17% | 1013.9 hPa | 0 mm | - | 999 W/m² | - |
| 1777840078 | 23.33° C | 18% | 1014.2 hPa | 0 mm | - | 999 W/m² | - |
| 1777839777 | 22.78° C | 18% | 1014.1 hPa | 0 mm | - | 958 W/m² | - |
| 1777839476 | 22.78° C | 17% | 1014.1 hPa | 0 mm | - | 999 W/m² | - |
| 1777839176 | 22.78° C | 18% | 1014.2 hPa | 0 mm | - | 755 W/m² | - |
| 1777838875 | 22.78° C | 17% | 1014.2 hPa | 0 mm | - | 727 W/m² | - |
| 1777838575 | 22.22° C | 17% | 1014.1 hPa | 0 mm | - | 660 W/m² | - |
| 1777838274 | 22.22° C | 17% | 1014.2 hPa | 0 mm | - | 659 W/m² | - |
| 1777837974 | 22.22° C | 16% | 1014.2 hPa | 0 mm | - | 889 W/m² | - |
| 1777837673 | 22.78° C | 17% | 1014.3 hPa | 0 mm | - | 792 W/m² | - |
| 1777837372 | 23.33° C | 16% | 1014.2 hPa | 0 mm | - | 815 W/m² | - |
* Rain latest hour (hover to see other rain measurements)
** Current wind speed in m/s (hover to see current wind gust speed)